Regional Weather Roundup
Issued by NWS

Home | Current Version | Previous Version | Text Only | Print | Product List | Glossary Off
Versions: 1 2 3 4 5 6 7 8 9 10 11 12 13 14 15 16 17 18 19 20 21 22 23 24 25 26 27

000
ASUS45 KSLC 291610
RWRUT

UTAH REGIONAL WEATHER ROUNDUP
NATIONAL WEATHER SERVICE SALT LAKE CITY UT
1000 AM MDT SAT APR 29 2017

UTZ001>011-023>025-291700-

NORTHERN UTAH

CITY           SKY/WX    TMP DP  RH WIND       PRES   REMARKS
BRIGHAM CITY   SUNNY     46  22  39 NE7       30.22R
HILL AFB       SUNNY     43  22  42 NE18      30.17R
LOGAN          SUNNY     44  30  57 VRB3      30.22R
OGDEN          SUNNY     44  22  41 NE17G30   30.18R
SALT LAKE CITY MOSUNNY   46  24  42 VRB3      30.18R
TOOELE VALLEY  SUNNY     46  30  53 N14       30.19R
WENDOVER       SUNNY     49  24  37 N15       30.22R
HEBER CITY     SUNNY     39  21  48 N13G25    30.14R WCI  32

$$

UTZ011>015-024>027-291700-

CENTRAL/NORTHEAST UTAH

CITY           SKY/WX    TMP DP  RH WIND       PRES   REMARKS
PROVO AIRPORT  SUNNY     45  28  51 SW7       30.16R
MOAB/CANYONLAN CLOUDY    50  21  32 N13G28    30.01R
DELTA          SUNNY     45  27  49 N7        30.16R
PRICE          SUNNY     43  20  39 NE10      30.06R
RICHFIELD      CLOUDY    43  28  56 NE8G14    30.16R
ROOSEVELT      SUNNY     43  21  42 SE7       30.15S
VERNAL         SUNNY     40  17  39 NE24G33   30.15R WCI  29

$$

UTZ013>016-019>022-027-291700-

SOUTHERN UTAH

CITY           SKY/WX    TMP DP  RH WIND       PRES   REMARKS
BRYCE CANYON   SUNNY     38  15  39 N23G33    30.05R WCI  27
CEDAR CITY     CLOUDY    40  26  57 N18G25    30.12R WCI  31
MILFORD        PTSUNNY   47  30  51 N21G29    30.13R
ST GEORGE      SUNNY     57  25  29 VRB3      30.08R
HANKSVILLE     CLOUDY    50  19  29 N18G24    30.07R
KANAB          MOSUNNY   52  19  28 NW13G20   30.08S
BLANDING       MOSUNNY   46  25  42 N15G26    30.00R

$$

REGIONAL REPORTS     COLORADO/ARIZONA

CITY           SKY/WX    TMP DP  RH WIND       PRES   REMARKS
CRAIG, CO      CLOUDY    37  19  48 NE7       30.10R WCI  32
GRAND JUNCTION CLOUDY    47  22  37 N10       30.01R
RIFLE, CO      CLOUDY    42  21  43 W7        30.02R
MONTROSE, CO   MOSUNNY   34  33  96 NE3       30.01R
CORTEZ, CO     CLOUDY    33  32  96 CALM      29.93R
COLORADO CITY    N/A     52  27  37 NW14G23   30.09R
PAGE, AZ       SUNNY     53  22  29 VRB5      29.99R
GRAND CANYON   PTSUNNY   44  20  38 N9G17     30.02R
KINGMAN, AZ    SUNNY     56  32  40 N15       30.06S
FLAGSTAFF, AZ  SUNNY     41  14  33 NW10G18   29.99R

$$

REGIONAL REPORTS    NEVADA/IDAHO/WYOMING

CITY           SKY/WX    TMP DP  RH WIND       PRES   REMARKS
LAS VEGAS, NV  SUNNY     63  16  16 NW15      30.10R
ELY, NY        SUNNY     40  22  48 N8G18     30.21R WCI  34
ELKO, NV       SUNNY     42  24  49 VRB3      30.27R
POCATELLO, ID  MOSUNNY   41  31  67 SW7       30.25R
BURLEY, ID     SUNNY     45  28  51 W9        30.25R
FORT BRIDGER,  CLOUDY    30  23  74 E9        30.26R WCI  21
EVANSTON, WY   PTSUNNY   28  20  71 NE10      30.20R WCI  19
ROCK SPRINGS,  CLOUDY    33  22  63 NE18G26   30.21R WCI  22

$$




USA.gov is the U.S. government's official web portal to all federal, state and local government web resources and services.